[TLELIST] Archives

 

[list_settings.list_name] Current TLEs

March 2nd 2010 PST

HST 1 20580U 90037B 10059.86261320 .00000555 00000-0 29734-4 0 5290 2 20580 028.4682 227.0025 0003562 133.1876 226.9015 15.00908821888463 ISS (ZARYA) 1 25544U 98067A 10060.39299677 .00014318 00000-0 10455-3 0 6766 2 25544 051.6464 063.9887 0007280 000.0341 141.1443 15.73525555646494 CXO 1 25867U 99040B 10060.62500000 -.00000096 00000-0 10000-3 0 4344 2 25867 066.6097 058.6014 7989919 275.2423 356.4873 00.37807143 5986 ____________________________________________________________________ These 2-Line ...Continue Reading

[list_settings.list_name] Current TLEs

March 1st 2010 PST

HST 1 20580U 90037B 10057.93424432 .00000567 00000-0 30675-4 0 5289 2 20580 028.4685 239.5875 0003554 112.4119 247.6860 15.00907413888170 ISS (ZARYA) 1 25544U 98067A 10059.37694542 .00014405 00000-0 10528-3 0 6704 2 25544 051.6456 069.2012 0007500 356.0314 145.7061 15.73495628646339 CXO 1 25867U 99040B 10 55.42467365 .00000000 00000-0 10000-3 0 4335 2 25867 066.5869 058.8742 7984256 275.2477 008.4617 00.37816555 5976 ____________________________________________________________________ These 2-Line ...Continue Reading

[list_settings.list_name] Current TLEs

February 28th 2010 PST

HST 1 20580U 90037B 10057.93424432 .00000567 00000-0 30675-4 0 5289 2 20580 028.4685 239.5875 0003554 112.4119 247.6860 15.00907413888170 ISS (ZARYA) 1 25544U 98067A 10058.42680069 .00014277 00000-0 10453-3 0 6623 2 25544 051.6456 074.0766 0007097 351.8718 164.1153 15.73466689646186 CXO 1 25867U 99040B 10 55.42467365 .00000000 00000-0 10000-3 0 4335 2 25867 066.5869 058.8742 7984256 275.2477 008.4617 00.37816555 5976 ____________________________________________________________________ These 2-Line ...Continue Reading

[list_settings.list_name] Current TLEs

February 27th 2010 PST

HST 1 20580U 90037B 10055.73988967 .00000618 00000-0 34576-4 0 5273 2 20580 028.4693 253.9101 0003699 086.8123 273.2854 15.00906071887840 ISS (ZARYA) 1 25544U 98067A 10057.40796700 .00013727 00000-0 10082-3 0 6548 2 25544 051.6458 079.3030 0007163 347.6657 153.3196 15.73434214646028 CXO 1 25867U 99040B 10 55.42467365 .00000000 00000-0 10000-3 0 4335 2 25867 066.5869 058.8742 7984256 275.2477 008.4617 00.37816555 5976 ____________________________________________________________________ These 2-Line ...Continue Reading

[list_settings.list_name] Current TLEs

February 26th 2010 PST

HST 1 20580U 90037B 10055.73988967 .00000618 00000-0 34576-4 0 5273 2 20580 028.4693 253.9101 0003699 086.8123 273.2854 15.00906071887840 ISS (ZARYA) 1 25544U 98067A 10056.45785208 .00013336 00000-0 98202-4 0 6494 2 25544 051.6464 084.1776 0006969 343.4220 172.1853 15.73405586645870 CXO 1 25867U 99040B 10055.33333333 -.00000153 00000-0 10000-3 0 4321 2 25867 066.5880 058.9371 7977638 275.2349 355.9603 00.37802333 5965 ____________________________________________________________________ These 2-Line ...Continue Reading

[list_settings.list_name] Current TLEs

February 25th 2010 PST

HST 1 20580U 90037B 10055.27442010 .00000629 00000-0 35420-4 0 5244 2 20580 028.4705 256.9450 0003752 082.1985 277.9017 15.00905860887767 ISS (ZARYA) 1 25544U 98067A 10055.43913953 .00013376 00000-0 98602-4 0 6422 2 25544 051.6461 089.4056 0007076 339.8613 161.6527 15.73376606645715 CXO 1 25867U 99040B 10055.33333333 -.00000153 00000-0 10000-3 0 4321 2 25867 066.5880 058.9371 7977638 275.2349 355.9603 00.37802333 5965 ____________________________________________________________________ These 2-Line ...Continue Reading

[list_settings.list_name] Current TLEs

February 24th 2010 PST

HST 1 20580U 90037B 10054.21048851 .00000640 00000-0 36282-4 0 5220 2 20580 028.4697 263.8864 0003501 069.2732 290.8231 15.00904731887602 ISS (ZARYA) 1 25544U 98067A 10054.35343256 .00013035 00000-0 96339-4 0 6354 2 25544 051.6467 094.9773 0006685 335.4325 132.3871 15.73345973645546 CXO 1 25867U 99040B 10052.70833333 -.00000142 00000-0 10000-3 0 4311 2 25867 066.5768 059.0417 7973819 275.2744 358.4914 00.37800699 5954 ____________________________________________________________________ These 2-Line ...Continue Reading

[list_settings.list_name] Current TLEs

February 23rd 2010 PST

HST 1 20580U 90037B 10053.01356447 .00000718 00000-0 42283-4 0 5202 2 20580 028.4700 271.7075 0003396 058.3717 301.7133 15.00904189887423 ISS (ZARYA) 1 25544U 98067A 10053.21030145 .00011752 00000-0 87418-4 0 6271 2 25544 051.6480 100.8421 0006776 327.7301 141.0461 15.73314996645360 CXO 1 25867U 99040B 10052.70833333 -.00000142 00000-0 10000-3 0 4311 2 25867 066.5768 059.0417 7973819 275.2744 358.4914 00.37800699 5954 ____________________________________________________________________ These 2-Line ...Continue Reading

[list_settings.list_name] Current TLEs

February 22nd 2010 PST

HST 1 20580U 90037B 10052.01612893 .00000777 00000-0 46785-4 0 5195 2 20580 028.4708 278.2173 0003199 047.5127 312.5788 15.00903587887278 ISS (ZARYA) 1 25544U 98067A 10052.39811343 .00073456 00000-0 51927-3 0 6214 2 25544 051.6466 105.0075 0007122 323.8288 221.6961 15.73308783645236 CXO 1 25867U 99040B 10052.70833333 -.00000142 00000-0 10000-3 0 4311 2 25867 066.5768 059.0417 7973819 275.2744 358.4914 00.37800699 5954 ____________________________________________________________________ These 2-Line ...Continue Reading

[list_settings.list_name] Current TLEs

February 21st 2010 PST

HST 1 20580U 90037B 10050.08775190 .00000779 00000-0 46916-4 0 5187 2 20580 028.4704 290.8093 0003208 028.1865 331.9056 15.00901329886982 ISS (ZARYA) 1 25544U 98067A 10051.42972957 .00038946 00000-0 25217-3 0 6157 2 25544 051.6455 109.9789 0012239 358.4181 094.8450 15.75546125645082 CXO 1 25867U 99040B 10047.41666667 -.00000110 +00000-0 +10000-3 0 04299 2 25867 066.5432 059.3316 7971227 275.2523 358.1045 00.37808571005936 ____________________________________________________________________ These 2-Line ...Continue Reading
  • This mailing list is a public mailing list - anyone may join or leave, at any time.
  • This mailing list is announce-only.

International Space Station (ISS) / Hubble Space Telescope (HST) / Chandra X-Ray Observatory Orbital Data via EMAIL

Privacy Policy:

Private list